Russellville, AR

1:23 AM CST on February 26, 2017 (GMT -0600)
Russellville Regional

Weather History for KRUE - March, 2013

Change the Weather History Date:

Monday, March 25, 2013

  Actual Average (KHOT) Record (KHOT)
Temperature  
Mean Temperature 36 °F -  
Max Temperature 41 °F 64 °F 84 °F (1991)
Min Temperature 30 °F 42 °F 27 °F (1974)
Degree Days  
Heating Degree Days 30    
Moisture  
Dew Point 21 °F    
Average Humidity 54    
Maximum Humidity 69    
Minimum Humidity 45    
Precipitation  
Precipitation 0.00 in - - ()
Sea Level Pressure  
Sea Level Pressure 30.20 in    
Wind  
Wind Speed 12 mph (WNW)    
Max Wind Speed 20 mph    
Max Gust Speed 29 mph    
Visibility 10 miles    
Events      
Averages and records for this station are not official NWS values.
T = Trace of Precipitation, MM = Missing Value Source: NWS Daily Summary

Daily Weather History Graph

Daily Weather History Graph

Search for Another Location

Airport or City:

Trip Planner

Search our weather history database for the weather conditions in past years. The results will help you decide how hot, cold, wet, or windy it might be!

Date:

Astronomy

Mar. 25, 2013 Rise Set
Actual Time 7:08 AM CDT 7:28 PM CDT
Civil Twilight 6:43 AM CDT 7:53 PM CDT
Nautical Twilight 6:13 AM CDT 8:23 PM CDT
Astronomical Twilight 5:43 AM CDT 8:53 PM CDT
Moon 6:02 PM CDT (3/25) 5:49 AM CDT (3/25)
Length of Visible Light 13h 10m
Length of Day
12h 19m
Waxing Gibbous, 96% of the Moon is Illuminated
Mar 25
Waxing Gibbous
Mar 27
Full
Apr 2
Last Quarter
Apr 10
New
Apr 18
First Quarter

Hourly Weather History & Observations

Time (CDT) Temp. Windchill Dew Point Humidity Pressure Visibility Wind Dir Wind Speed Gust Speed Precip Events Conditions
12:53 AM 34.0 °F 25.0 °F 19.0 °F 54% 30.10 in 10.0 mi NW 12.7 mph 21.9 mph N/A   Clear
1:53 AM 33.1 °F 24.9 °F 19.9 °F 59% 30.10 in 10.0 mi WNW 10.4 mph 19.6 mph N/A   Clear
2:53 AM 32.0 °F 24.2 °F 21.9 °F 66% 30.09 in 10.0 mi West 9.2 mph - N/A   Clear
3:53 AM 32.0 °F 24.8 °F 21.9 °F 66% 30.10 in 10.0 mi West 8.1 mph - N/A   Clear
4:53 AM 30.9 °F 22.2 °F 21.9 °F 69% 30.10 in 10.0 mi WNW 10.4 mph - N/A   Clear
5:53 AM 32.0 °F 23.0 °F 21.0 °F 64% 30.10 in 10.0 mi WNW 11.5 mph - N/A   Clear
6:53 AM 30.9 °F 21.7 °F 21.0 °F 67% 30.11 in 10.0 mi WNW 11.5 mph - N/A   Clear
7:53 AM 32.0 °F 24.2 °F 21.0 °F 64% 30.13 in 10.0 mi West 9.2 mph - N/A   Clear
8:53 AM 34.0 °F 23.0 °F 21.0 °F 59% 30.16 in 10.0 mi WNW 18.4 mph 24.2 mph N/A   Clear
9:53 AM 36.0 °F 26.3 °F 19.0 °F 50% 30.18 in 10.0 mi NW 16.1 mph 25.3 mph N/A   Scattered Clouds
10:53 AM 37.0 °F 27.4 °F 18.0 °F 46% 30.21 in 10.0 mi WNW 17.3 mph 27.6 mph N/A   Mostly Cloudy
11:53 AM 39.0 °F 29.3 °F 19.9 °F 46% 30.22 in 10.0 mi NW 19.6 mph 28.8 mph N/A   Mostly Cloudy
1:53 PM 39.9 °F 30.8 °F 19.9 °F 45% 30.24 in 10.0 mi NW 18.4 mph 28.8 mph N/A   Mostly Cloudy
2:53 PM 39.9 °F 32.5 °F 21.0 °F 47% 30.25 in 10.0 mi WNW 12.7 mph 18.4 mph N/A   Overcast
3:53 PM 41.0 °F 33.5 °F 21.9 °F 47% 30.24 in 10.0 mi WNW 13.8 mph 23.0 mph N/A   Overcast
4:53 PM 39.9 °F 32.1 °F 19.9 °F 45% 30.24 in 10.0 mi NW 13.8 mph 23.0 mph N/A   Overcast
5:53 PM 39.9 °F 32.1 °F 21.0 °F 47% 30.24 in 10.0 mi West 13.8 mph 24.2 mph N/A   Overcast
6:53 PM 39.0 °F 32.3 °F 19.0 °F 45% 30.26 in 10.0 mi WNW 10.4 mph 18.4 mph N/A   Overcast
7:53 PM 39.0 °F 31.8 °F 21.0 °F 49% 30.27 in 10.0 mi WNW 11.5 mph - N/A   Overcast
8:53 PM 37.9 °F 30.5 °F 21.0 °F 51% 30.29 in 10.0 mi WNW 11.5 mph 20.7 mph N/A   Overcast
9:53 PM 37.0 °F 29.8 °F 21.9 °F 54% 30.31 in 10.0 mi WNW 10.4 mph - N/A   Overcast
10:53 PM 36.0 °F 28.5 °F 21.0 °F 55% 30.33 in 10.0 mi WNW 10.4 mph - N/A   Clear
11:53 PM 35.1 °F 27.9 °F 19.9 °F 54% 30.33 in 10.0 mi WNW 9.2 mph - N/A   Clear